[[{"header":{"parameterUnit":"m.s-1","parameterCategory":1,"la1":30.2991,"la2":30.254,"lo1":-89.0895,"lo2":-89.0444,"dy":0.0017,"dx":0.0017,"nx":28,"ny":28,"refTime":"2026-01-29T09:00:00:Z","depth":0,"parameterNumber":2,"parameterNumberName":"U-component_of_WINDS"},"data":[0,0,0,0,0,0,0,0,0,0,0,0,0,0,0,0,0,0,0,0,0,0,0,0,0,0,0,0,0,0,0,0,0,0,0,0,0,0,0,0,0,0,0,0,0,0,0,0,0,0,0,0,0,0,0,0,0,0,2.8195,2.8196,0,2.8221,2.8221,2.8221,2.8196,2.8195,2.8194,2.8193,2.8223,2.8225,2.8226,0,0,0,0,0,0,0,0,0,0,0,0,0,2.813,2.8131,2.8195,2.8196,2.8196,2.8221,2.8221,2.8221,2.8196,2.8195,2.8194,2.8193,2.8222,2.8224,2.8227,0,0,0,0,0,0,0,0,0,0,0,0,0,2.8157,2.8132,2.8195,2.8186,2.8186,2.8221,2.8221,2.8221,2.8196,2.8195,2.8193,2.8192,2.8222,2.8224,2.8227,2.8273,0,0,2.8235,2.8236,0,0,0,0,0,0,0,0,2.8156,2.816,2.8187,2.8187,2.8186,2.8203,2.8209,2.8239,2.8197,2.8193,2.8193,2.8191,2.8218,2.8221,2.8229,2.8274,2.8276,2.8235,2.8237,2.8238,2.8238,0,0,0,0,0,0,0,2.8154,2.8159,2.8206,2.8188,2.8187,2.8183,2.8185,2.8214,2.8214,2.8193,2.8191,2.8194,2.8217,2.8227,2.8229,2.8276,2.8235,2.8237,2.8239,2.824,2.8362,2.8364,0,0,0,0,0,0,2.8152,2.8157,2.8205,2.8206,2.8167,2.8185,2.8187,2.82,2.8213,2.8214,2.8195,2.8193,2.8223,2.8226,2.823,2.8286,2.8238,2.824,2.8242,2.836,2.8362,2.8364,0,0,0,0,0,0,2.8151,2.8157,2.8204,2.8181,2.8187,2.8188,2.8202,2.8201,2.821,2.8215,2.8215,2.8204,2.8222,2.8227,2.8263,2.8286,2.8241,2.8244,2.8358,2.8361,2.8363,2.8396,0,0,0,0,0,0,2.8149,2.8157,2.8173,2.8182,2.8188,2.8234,2.8203,2.8203,2.8214,2.8211,2.8223,2.8224,2.8221,2.8259,2.8265,2.8289,2.8246,2.8356,2.836,2.8362,2.8393,2.8399,2.8405,0,0,0,0,0,2.8147,2.8182,2.8174,2.818,2.8208,2.8235,2.8239,2.8233,2.8216,2.8233,2.8237,2.8224,2.8283,2.8263,2.827,2.8295,2.8355,2.8359,2.8362,2.839,2.8398,2.8405,0,0,0,0,0,0,2.8177,2.8183,2.8174,2.8212,2.8223,2.8231,2.8252,2.8242,2.8259,2.8256,2.825,2.8253,2.829,2.8296,2.8274,2.8341,2.8316,2.8322,2.8335,2.8343,2.8349,2.8346,2.8248,0,0,0,0,0,2.8188,2.8208,2.8213,2.8246,2.8252,2.8251,2.8263,2.8258,2.8269,2.8274,2.828,2.8294,2.8315,2.8329,2.835,2.8394,2.8397,2.8415,2.8421,2.8426,2.8431,2.8455,2.8464,2.8377,2.8377,2.8377,0,0,2.8211,2.8217,2.823,2.8252,2.826,2.8282,2.8255,2.828,2.8297,2.8278,2.8312,2.8317,2.8332,2.8372,2.839,2.8378,2.8455,2.8431,2.8435,2.8437,2.846,2.8468,2.8476,2.8379,2.8379,2.8378,0,0,2.8264,2.827,2.8299,2.8307,2.8319,2.8318,2.8326,2.8335,2.8337,2.8371,2.8358,2.8379,2.8416,2.8427,2.8437,2.8496,2.8485,2.8503,2.8534,2.8558,2.8565,2.8571,2.8592,2.86,2.8507,2.8508,2.8508,0,2.8291,2.8322,2.8315,2.834,2.8351,2.8335,2.8365,2.8374,2.8392,2.8401,2.8387,2.8433,2.8442,2.8485,2.8499,2.8509,2.8517,2.8501,2.8565,2.8571,2.8576,2.8596,2.8604,2.851,2.8509,2.8509,2.8509,0,2.8356,2.8378,2.84,2.8417,2.843,2.8458,2.8456,2.8471,2.8465,2.8467,2.8502,2.8512,2.8534,2.8544,2.8539,2.8587,2.8579,2.8565,2.854,2.8587,2.8605,2.8613,2.8513,2.8512,2.8511,2.8511,0,0,2.8427,2.844,2.8448,2.8456,2.8468,2.8486,2.8514,2.8534,2.8547,2.8562,2.8585,2.8618,2.8605,2.8617,2.8613,2.8635,2.8681,2.8618,2.8618,2.8629,2.8735,2.8745,2.8753,2.8674,2.8676,2.8677,2.8733,0,2.848,2.8526,2.8521,2.8566,2.8587,2.8572,2.8596,2.8608,2.861,2.863,2.8634,2.8656,2.8638,2.8645,2.8666,2.8671,2.8702,2.8667,2.8697,2.8698,2.8693,2.8763,2.8774,2.8826,2.8741,2.8742,2.8743,0,2.8548,2.8563,2.8609,2.8619,2.8628,2.8649,2.8668,2.8687,2.87,2.87,2.8714,2.8707,2.8737,2.8712,2.8753,2.873,2.8742,2.8747,2.8749,2.8751,2.8723,2.8767,2.8843,2.8851,2.8754,2.8753,2.8753,0,2.8596,2.8628,2.8659,2.8667,2.8679,2.8694,2.8701,2.8712,2.8725,2.8742,2.8751,2.8772,2.8783,2.88,2.88,2.8782,2.8842,2.8817,2.8844,2.8845,2.8857,2.8856,2.8936,2.8866,2.8866,2.8866,2.8866,0,2.8655,2.8684,2.8681,2.87,2.8733,2.8727,2.876,2.8765,2.8776,2.8797,2.8787,2.8808,2.8806,2.8827,2.8828,2.8862,2.8868,2.887,2.887,2.887,2.887,2.8878,2.8874,2.8868,2.8868,2.8867,2.8867,0,2.8713,2.8712,2.8746,2.8754,2.8757,2.8781,2.8789,2.8809,2.8811,2.8838,2.8844,2.8848,2.8873,2.8874,2.8904,2.8904,2.8946,2.8942,2.8941,2.894,2.8967,2.8964,2.9054,2.9065,2.8989,2.8989,2.899,0,2.8751,2.8773,2.8783,2.8796,2.8803,2.8824,2.8837,2.8833,2.8847,2.8864,2.8882,2.8905,2.8924,2.8965,2.8971,2.8994,2.899,2.902,2.8993,2.8994,2.899,2.8989,2.8991,2.9025,2.9026,2.9027,2.9027,0,2.8818,2.8817,2.8834,2.8852,2.8867,2.8882,2.8895,2.8907,2.8905,2.8922,2.8946,2.896,2.899,2.9014,2.9036,2.9044,2.9036,2.9036,2.9043,2.9044,2.9042,2.9043,2.8954,2.9033,2.9033,2.9032,2.9032,2.9032,2.8867,2.8886,2.8896,2.8917,2.8926,2.8939,2.8957,2.8962,2.8981,2.9003,2.9001,2.9028,2.9042,2.9071,2.9081,2.9104,2.9094,2.9105,2.9107,2.911,2.9112,2.9039,2.9108,2.9108,2.9108,2.9108,2.9107,0,2.8934,2.894,2.8959,2.8977,2.8993,2.8983,2.8997,2.9012,2.9036,2.9049,2.9067,2.9096,2.9119,2.9128,2.9151,2.9168,2.9164,2.9174,2.9172,2.9174,2.912,2.9111,2.9176,2.9176,2.9176,2.9176,2.9176,2.9176,2.897,2.9001,2.9001,2.9037,2.9044,2.9069,2.9078,2.909,2.9101,2.9132,2.9151,2.9156,2.9168,2.9192,2.9213,2.9216,2.9225,2.9236,2.9236,2.9185,2.9178,2.9172,2.9163,2.9238,2.9238,2.9288,2.9289,2.9289]},{"header":{"parameterUnit":"m.s-1","parameterCategory":1,"la1":30.2991,"la2":30.254,"lo1":-89.0895,"lo2":-89.0444,"dy":0.0017,"dx":0.0017,"nx":28,"ny":28,"refTime":"2026-01-29T09:00:00:Z","depth":0,"parameterNumber":3,"parameterNumberName":"V-component_of_WINDS"},"data":[0,0,0,0,0,0,0,0,0,0,0,0,0,0,0,0,0,0,0,0,0,0,0,0,0,0,0,0,0,0,0,0,0,0,0,0,0,0,0,0,0,0,0,0,0,0,0,0,0,0,0,0,0,0,0,0,0,0,-3.1427,-3.1426,0,-3.1321,-3.132,-3.1319,-3.1263,-3.1263,-3.1263,-3.1263,-3.1151,-3.1148,-3.1145,0,0,0,0,0,0,0,0,0,0,0,0,0,-3.1577,-3.1575,-3.1427,-3.1426,-3.1425,-3.1322,-3.132,-3.1319,-3.1263,-3.1263,-3.1263,-3.1263,-3.1152,-3.1148,-3.1145,0,0,0,0,0,0,0,0,0,0,0,0,0,-3.1496,-3.1574,-3.1427,-3.1384,-3.138,-3.1322,-3.132,-3.1318,-3.1263,-3.1263,-3.1263,-3.1263,-3.1153,-3.1148,-3.1144,-3.112,0,0,-3.1131,-3.1129,0,0,0,0,0,0,0,0,-3.1501,-3.149,-3.1392,-3.1387,-3.1382,-3.1305,-3.1332,-3.1252,-3.1263,-3.1307,-3.1263,-3.1263,-3.1202,-3.1194,-3.1174,-3.1115,-3.111,-3.113,-3.1128,-3.1126,-3.1125,0,0,0,0,0,0,0,-3.1506,-3.1495,-3.1385,-3.1391,-3.1384,-3.1369,-3.1358,-3.1316,-3.1256,-3.1303,-3.1299,-3.1288,-3.1199,-3.1178,-3.1171,-3.1108,-3.1131,-3.1127,-3.1124,-3.1122,-3.1024,-3.1024,0,0,0,0,0,0,-3.1519,-3.15,-3.1388,-3.1382,-3.1442,-3.1367,-3.1354,-3.133,-3.1257,-3.1246,-3.1288,-3.1285,-3.1186,-3.1176,-3.1167,-3.1133,-3.1126,-3.1122,-3.1119,-3.1024,-3.1024,-3.1024,0,0,0,0,0,0,-3.1523,-3.151,-3.1393,-3.144,-3.1424,-3.1364,-3.1338,-3.1328,-3.1307,-3.1245,-3.1234,-3.1278,-3.1185,-3.1173,-3.1132,-3.1129,-3.112,-3.1116,-3.1024,-3.1024,-3.1024,-3.1067,0,0,0,0,0,0,-3.1527,-3.1512,-3.1503,-3.144,-3.1421,-3.1361,-3.1338,-3.1326,-3.13,-3.1296,-3.1233,-3.1222,-3.1184,-3.1139,-3.1128,-3.1123,-3.1113,-3.1024,-3.1024,-3.1024,-3.1066,-3.1068,-3.1071,0,0,0,0,0,-3.1533,-3.1518,-3.1502,-3.1489,-3.1409,-3.1361,-3.135,-3.1308,-3.13,-3.129,-3.125,-3.1224,-3.1131,-3.1135,-3.1122,-3.1116,-3.1024,-3.1024,-3.1024,-3.1064,-3.1068,-3.1071,0,0,0,0,0,0,-3.158,-3.1509,-3.1491,-3.1455,-3.1415,-3.1352,-3.1338,-3.1313,-3.1273,-3.1271,-3.1219,-3.1205,-3.117,-3.1138,-3.1144,-3.1088,-3.1075,-3.1072,-3.111,-3.1113,-3.1116,-3.1124,-3.1109,0,0,0,0,0,-3.1587,-3.1555,-3.1494,-3.1468,-3.1449,-3.1397,-3.1375,-3.1346,-3.1302,-3.1284,-3.1241,-3.1198,-3.1159,-3.1134,-3.1095,-3.1061,-3.1046,-3.105,-3.1053,-3.1055,-3.1053,-3.1033,-3.1034,-3.1024,-3.1024,-3.1024,0,0,-3.1599,-3.1556,-3.1539,-3.1477,-3.1442,-3.141,-3.1383,-3.135,-3.1325,-3.1278,-3.1238,-3.1205,-3.1153,-3.1116,-3.1098,-3.1089,-3.1053,-3.1055,-3.1058,-3.1054,-3.1033,-3.1034,-3.1035,-3.1024,-3.1024,-3.1024,0,0,-3.1605,-3.157,-3.1545,-3.1512,-3.146,-3.1426,-3.142,-3.1361,-3.1337,-3.1296,-3.1261,-3.123,-3.1164,-3.1129,-3.1102,-3.1096,-3.1071,-3.1085,-3.1099,-3.108,-3.108,-3.1081,-3.1079,-3.1078,-3.1083,-3.1084,-3.1084,0,-3.1627,-3.1578,-3.1535,-3.1504,-3.1478,-3.1436,-3.141,-3.1379,-3.1316,-3.1298,-3.129,-3.1207,-3.1169,-3.1123,-3.1122,-3.1102,-3.1093,-3.1092,-3.1084,-3.1084,-3.1084,-3.1081,-3.108,-3.1086,-3.1085,-3.1085,-3.1085,0,-3.1607,-3.1573,-3.1559,-3.1502,-3.1474,-3.1445,-3.1398,-3.1374,-3.1348,-3.1315,-3.1273,-3.1226,-3.1177,-3.1164,-3.1138,-3.1115,-3.1111,-3.1094,-3.1079,-3.1088,-3.1084,-3.1083,-3.1089,-3.1088,-3.1087,-3.1087,0,0,-3.1639,-3.156,-3.1555,-3.1529,-3.1469,-3.1442,-3.1411,-3.1365,-3.1346,-3.1304,-3.1277,-3.1223,-3.1207,-3.1177,-3.1146,-3.113,-3.1128,-3.1114,-3.1112,-3.1118,-3.1099,-3.1112,-3.1112,-3.1111,-3.111,-3.111,-3.1103,0,-3.1637,-3.1582,-3.1543,-3.1502,-3.147,-3.1431,-3.1404,-3.1364,-3.1332,-3.13,-3.1263,-3.1226,-3.1208,-3.119,-3.1172,-3.1132,-3.1123,-3.1132,-3.1084,-3.1083,-3.1098,-3.111,-3.1123,-3.1119,-3.1102,-3.1102,-3.1101,0,-3.1627,-3.1588,-3.1545,-3.149,-3.1475,-3.1452,-3.1406,-3.1376,-3.133,-3.1307,-3.1275,-3.1244,-3.1209,-3.1198,-3.1149,-3.1156,-3.1134,-3.1111,-3.111,-3.1103,-3.1092,-3.1103,-3.1117,-3.1116,-3.1099,-3.1099,-3.1099,0,-3.1655,-3.1592,-3.1558,-3.1537,-3.1471,-3.1456,-3.1428,-3.1381,-3.1356,-3.1316,-3.1299,-3.1254,-3.123,-3.1196,-3.1154,-3.1149,-3.1109,-3.1094,-3.1089,-3.109,-3.1081,-3.1082,-3.1091,-3.1068,-3.1068,-3.1068,-3.1068,0,-3.1656,-3.1631,-3.157,-3.1549,-3.152,-3.1475,-3.1447,-3.1415,-3.1374,-3.1346,-3.1308,-3.1282,-3.1228,-3.1195,-3.1161,-3.1126,-3.1115,-3.1095,-3.1087,-3.1099,-3.1101,-3.1083,-3.1082,-3.1068,-3.1068,-3.1068,-3.1068,0,-3.1682,-3.164,-3.1601,-3.1542,-3.1527,-3.1508,-3.1457,-3.1435,-3.1402,-3.1366,-3.1355,-3.1302,-3.1261,-3.1216,-3.1159,-3.1137,-3.1103,-3.1091,-3.1119,-3.1114,-3.1111,-3.1112,-3.1108,-3.1106,-3.1085,-3.1085,-3.1086,0,-3.1686,-3.1666,-3.1606,-3.1585,-3.1558,-3.1524,-3.1499,-3.1454,-3.1428,-3.1375,-3.1359,-3.1316,-3.1279,-3.1215,-3.1171,-3.1128,-3.1114,-3.1115,-3.1107,-3.1119,-3.1113,-3.1115,-3.1113,-3.1118,-3.1118,-3.1119,-3.1119,0,-3.1697,-3.1677,-3.1642,-3.16,-3.1571,-3.1536,-3.1498,-3.1483,-3.143,-3.1404,-3.1362,-3.1334,-3.1277,-3.1235,-3.1186,-3.1155,-3.1128,-3.1122,-3.1119,-3.113,-3.1148,-3.1138,-3.1126,-3.1122,-3.1122,-3.1122,-3.1121,-3.1121,-3.1711,-3.1692,-3.1647,-3.1609,-3.1577,-3.1543,-3.152,-3.1484,-3.1449,-3.1401,-3.1376,-3.1335,-3.1289,-3.1221,-3.1192,-3.1158,-3.1149,-3.1144,-3.1142,-3.1142,-3.1145,-3.1154,-3.1149,-3.1149,-3.1149,-3.1148,-3.1148,0,-3.172,-3.1689,-3.1656,-3.1605,-3.1576,-3.1555,-3.1512,-3.1489,-3.1454,-3.1414,-3.1379,-3.1331,-3.129,-3.1243,-3.1198,-3.118,-3.1167,-3.117,-3.1171,-3.1164,-3.1156,-3.1163,-3.1182,-3.1182,-3.1182,-3.1182,-3.1182,-3.1182,-3.1721,-3.1687,-3.1663,-3.1612,-3.1581,-3.1542,-3.152,-3.1488,-3.1456,-3.1406,-3.1372,-3.1342,-3.1299,-3.1251,-3.1212,-3.1199,-3.1184,-3.1191,-3.1174,-3.1167,-3.1164,-3.1162,-3.1169,-3.1188,-3.1188,-3.1185,-3.1185,-3.1185]}]]